Hurghada, Egypt

10:29 PM EET on February 11, 2016 (GMT +0200)
Hurghada

Weather History for 62463 - September, 2013

Change the Weather History Date:

Monday, September 2, 2013

  Actual Average Record
Temperature  
Mean Temperature 90 °F -  
Max Temperature 100 °F 91 °F - ()
Min Temperature 79 °F 77 °F - ()
Cooling Degree Days 24    
Growing Degree Days 40 (Base 50)    
Moisture  
Dew Point 69 °F    
Average Humidity 53    
Maximum Humidity 74    
Minimum Humidity 30    
Precipitation  
Precipitation 0.00 in - - ()
Sea Level Pressure  
Sea Level Pressure 29.77 in    
Wind  
Wind Speed 10 mph ()    
Max Wind Speed 23 mph    
Max Gust Speed -    
Visibility 6.0 miles    
Events      
T = Trace of Precipitation, MM = Missing Value Source: Averaged Metar Reports

Daily Weather History Graph

Daily Weather History Graph

Search for Another Location

Airport or City:

Trip Planner

Search our weather history database for the weather conditions in past years. The results will help you decide how hot, cold, wet, or windy it might be!

Date:

Astronomy

Sep. 02, 2013 Rise Set
Actual Time 5:24 AM EET 6:04 PM EET
Civil Twilight 5:00 AM EET 6:27 PM EET
Nautical Twilight 4:33 AM EET 6:55 PM EET
Astronomical Twilight 4:04 AM EET 7:23 PM EET
Moon 2:32 AM EET (9/2) 3:57 PM EET (9/2)
Length of Visible Light 13h 26m
Length of Day
12h 39m
Waning Crescent, 9% of the Moon is Illuminated
Sep 2
Waning Crescent
Sep 5
New
Sep 12
First Quarter
Sep 19
Full
Sep 27
Last Quarter

Hourly Weather History & Observations

Time (EET) Temp. Heat Index Dew Point Humidity Pressure Visibility Wind Dir Wind Speed Gust Speed Precip Events Conditions
12:00 AM 86.0 °F 86.6 °F 62.6 °F 45% 29.74 in - NW 13.8 mph - N/A   Clear
1:00 AM 84.2 °F 86.6 °F 66.2 °F 55% 29.74 in - NW 12.7 mph - N/A   Clear
2:00 AM 84 °F - 66 °F 46% 29.75 in 6 mi NW 12.7 mph - -  
2:00 AM 84.2 °F 86.6 °F 66.2 °F 55% 29.74 in - NW 12.7 mph - N/A   Clear
3:00 AM 82.4 °F 85.4 °F 68.0 °F 62% 29.74 in - NW 12.7 mph - N/A   Clear
4:00 AM 80.6 °F 83.2 °F 68.0 °F 65% 29.74 in - NW 12.7 mph - N/A   Clear
5:00 AM 80.6 °F 83.2 °F 68.0 °F 65% 29.77 in - NW 11.5 mph - N/A   Clear
6:00 AM 78.8 °F - 69.8 °F 74% 29.77 in - NNW 5.8 mph - N/A   Clear
7:00 AM 82.4 °F 87.2 °F 71.6 °F 70% 29.80 in - NW 8.1 mph - N/A   Clear
8:00 AM 85 °F - 71 °F 54% 29.81 in 6 mi North 9.2 mph - -  
8:00 AM 86.0 °F 91.8 °F 71.6 °F 62% 29.80 in - North 9.2 mph - N/A   Clear
9:00 AM 87.8 °F 93.8 °F 71.6 °F 58% 29.80 in - North 23.0 mph - N/A   Clear
10:00 AM 89.6 °F 96.2 °F 71.6 °F 55% 29.80 in - North 20.7 mph - N/A   Clear
11:00 AM 91.4 °F 98.4 °F 71.6 °F 52% 29.77 in - NNE 18.4 mph - N/A   Clear
12:00 PM 95.0 °F 103.2 °F 71.6 °F 47% 29.77 in - NNE 15.0 mph - N/A   Clear
1:00 PM 96.8 °F 105.1 °F 71.6 °F 44% 29.74 in - NNE 12.7 mph - N/A   Clear
2:00 PM 99 °F - 70 °F 30% 29.75 in 6 mi NNE 11.5 mph - -  
2:00 PM 98.6 °F 105.5 °F 69.8 °F 39% 29.74 in - NNE 11.5 mph - N/A   Clear
3:00 PM 100.4 °F 107.8 °F 69.8 °F 37% 29.74 in - NE 5.8 mph - N/A   Clear
4:00 PM 98.6 °F 105.5 °F 69.8 °F 39% 29.71 in - North 4.6 mph - N/A   Clear
5:00 PM 95.0 °F 101.3 °F 69.8 °F 44% 29.74 in - North 5.8 mph - N/A   Clear
6:00 PM 89.6 °F 96.2 °F 71.6 °F 55% 29.77 in - North 6.9 mph - N/A   Clear
7:00 PM 87.8 °F 93.8 °F 71.6 °F 58% 29.77 in - Calm Calm - N/A   Clear
8:00 PM 87 °F - 73 °F 55% 29.80 in 6 mi Calm Calm - -  
8:00 PM 87.8 °F 95.6 °F 73.4 °F 62% 29.80 in - Calm Calm - N/A   Clear
9:00 PM 86.0 °F 91.8 °F 71.6 °F 62% 29.80 in - Calm Calm - N/A   Clear
10:00 PM 86.0 °F 86.6 °F 62.6 °F 45% 29.80 in - NW 6.9 mph - N/A   Clear
11:00 PM 86.0 °F 86.6 °F 62.6 °F 45% 29.80 in - NW 10.4 mph - N/A   Clear